Theta_e
349 345 337 335 335 334 333 332 327 317 313 317 317 315 315 315 316 316 316 316 316 316 316 315 314 314 317 323 328 331 334 336 337 337 337 337 338 338 338 338 337 337 337 337 337 338 338 337 337 337 335 332 331 328 326 323 319 320 320 320 317 312 309 308 308 308 310 310 310 311 311 311 311 312 314 316 320 321 322 319 318 317 312 311 311
349 345 338 335 335 334 333 332 327 317 314 317 316 315 315 317 318 318 317 316 315 314 314 314 316 319 325 329 332 335 337 337 338 338 338 338 338 338 338 338 337 337 337 337 337 337 337 337 336 335 333 330 328 326 323 319 314 311 310 309 308 308 307 308 308 309 311 311 311 312 311 312 312 313 314 315 317 318 317 314 316 316 312 311 311
349 344 337 336 335 334 333 332 328 317 314 318 316 315 317 320 321 320 319 317 316 316 318 320 323 326 330 334 336 337 337 338 338 338 338 338 338 338 338 338 338 337 337 337 336 336 336 336 335 334 332 329 327 326 322 316 313 309 307 307 307 307 307 308 308 310 314 314 312 313 313 313 313 313 313 314 314 314 315 313 312 312 311 311 311
348 342 337 336 335 335 334 333 329 317 313 317 317 317 319 323 324 323 322 321 321 321 322 325 327 331 335 338 338 337 337 338 338 337 338 338 338 338 338 338 338 337 337 336 336 336 336 335 335 334 331 328 328 328 321 315 314 310 307 307 307 308 308 309 310 312 315 316 319 324 324 318 312 312 312 312 313 313 313 312 311 311 311 311 313
348 342 337 336 335 335 334 334 330 319 313 317 318 318 321 325 327 327 327 327 326 326 326 329 332 336 338 338 337 337 337 337 338 337 338 338 338 338 338 338 337 337 337 336 336 336 335 335 334 333 329 329 331 328 321 316 315 311 309 308 308 309 308 310 311 316 318 320 328 332 329 322 312 312 312 311 312 312 312 312 312 312 313 313 313
346 342 338 337 335 335 335 334 332 322 313 316 319 319 323 326 329 330 330 331 331 331 332 335 337 338 338 337 337 337 337 337 338 338 338 338 338 339 339 339 338 337 337 336 336 335 335 334 333 331 328 329 330 327 324 322 317 313 311 309 309 309 310 311 313 319 321 325 331 333 331 324 314 312 313 312 313 313 313 313 314 314 314 314 313
345 341 340 338 335 335 335 334 333 325 314 314 320 322 325 327 330 332 333 334 335 336 337 338 338 337 337 337 337 337 337 337 338 338 339 339 339 339 338 338 338 337 337 337 336 335 334 333 332 331 327 326 327 327 328 325 318 313 312 311 310 309 311 312 315 318 320 328 334 333 331 325 315 313 314 313 314 313 314 313 313 314 313 313 313
345 341 342 340 335 335 335 334 333 327 316 313 318 322 326 327 331 335 336 336 337 338 338 338 337 337 337 337 337 337 337 338 338 339 339 339 339 339 338 339 338 337 337 336 335 334 334 332 331 329 324 321 323 326 327 324 317 313 313 312 311 312 312 313 315 315 320 330 333 332 330 325 317 314 314 313 314 313 314 313 313 313 313 313 313
345 342 342 340 335 335 335 334 334 329 320 313 316 321 326 328 332 336 337 337 337 337 337 338 337 337 337 337 337 337 337 337 338 337 338 338 337 336 335 334 333 333 334 335 334 333 332 330 328 324 320 320 322 324 324 320 315 314 313 312 313 312 312 312 312 317 325 329 329 330 330 327 319 312 314 314 314 314 314 314 314 313 313 313 313
344 342 342 340 335 335 335 334 334 330 323 314 314 320 325 329 333 336 337 337 337 337 338 338 338 338 338 338 337 337 337 336 337 337 336 334 332 330 328 326 324 323 324 326 327 328 328 327 323 318 318 321 323 322 320 316 315 315 313 312 312 311 311 311 311 321 328 326 322 322 322 323 318 313 314 313 313 314 313 314 313 313 312 313 312
343 341 342 340 336 336 336 335 334 331 325 317 313 317 324 328 332 335 336 336 337 337 337 338 338 337 338 338 337 336 336 335 335 334 332 330 328 325 323 321 318 315 313 315 319 323 322 319 317 317 319 322 322 320 318 316 316 316 313 312 311 311 311 310 318 325 327 323 315 312 316 319 316 313 314 312 313 313 313 313 312 312 312 312 312
342 342 341 338 335 336 336 335 334 332 328 320 314 314 321 327 331 333 334 335 336 337 337 338 338 337 338 337 336 336 335 334 333 332 330 329 326 323 321 317 313 310 309 310 313 317 314 309 312 317 320 321 322 320 318 318 317 316 313 312 311 312 311 310 322 327 324 322 314 313 321 323 316 312 313 312 313 313 312 312 312 312 311 311 311
341 342 342 337 336 337 336 335 334 333 330 323 316 313 316 325 332 333 333 335 335 336 336 337 337 337 337 336 336 336 335 334 332 331 330 329 324 320 316 312 309 308 308 308 309 310 309 307 310 317 320 322 322 320 320 319 318 316 313 312 311 311 311 311 322 327 321 317 314 314 318 318 314 312 313 312 312 312 312 312 312 312 311 311 311
342 342 341 336 336 336 336 335 334 333 331 326 320 314 313 321 329 331 332 334 334 335 335 336 336 336 336 336 336 336 335 333 330 329 328 326 321 316 312 309 308 308 308 308 308 307 307 308 310 316 320 322 321 321 321 321 319 316 314 313 312 312 311 313 321 323 317 312 314 317 315 312 312 312 313 312 313 313 313 313 312 311 311 311 311
343 342 339 335 336 337 336 335 334 334 332 328 322 317 312 314 323 327 330 332 334 334 334 334 334 334 335 335 335 334 333 330 329 327 325 322 317 313 309 308 308 308 308 308 308 308 308 309 312 315 319 321 321 322 323 322 320 318 317 314 313 313 312 321 326 319 315 314 313 320 321 313 311 312 312 312 312 313 313 313 312 312 312 311 311
342 341 338 336 337 337 336 335 335 334 332 330 324 319 313 311 317 323 328 332 333 333 333 333 332 332 333 334 334 331 329 328 327 324 321 318 314 311 309 308 308 308 308 308 308 308 308 311 314 315 317 320 321 323 324 322 320 319 318 316 316 315 313 324 329 323 321 320 313 320 323 312 310 312 311 313 312 313 314 313 314 313 313 312 312
342 341 339 338 338 338 338 336 335 334 332 330 325 321 315 310 313 319 327 332 333 333 334 333 332 332 332 333 331 329 327 325 324 322 318 315 312 310 309 308 308 308 308 308 308 308 308 312 316 317 317 319 321 323 324 322 321 319 319 317 316 316 314 319 328 328 323 319 315 320 323 313 309 313 311 313 313 314 315 315 315 315 314 313 313
342 342 340 339 338 338 339 337 336 334 332 330 324 320 316 310 312 318 325 332 334 334 333 333 333 333 332 330 327 325 323 322 321 320 316 313 312 311 310 309 308 308 308 308 308 308 309 313 318 319 318 319 321 324 324 325 323 321 320 319 317 318 316 317 329 329 319 316 319 321 320 313 310 313 312 313 314 315 316 316 317 316 315 314 314
342 341 340 339 338 339 339 338 337 336 335 334 327 319 315 310 311 317 325 331 333 334 334 334 333 332 330 326 322 321 320 320 320 318 315 313 312 312 311 310 309 308 308 308 308 309 310 313 319 321 319 320 322 324 326 327 326 325 323 322 320 318 316 324 332 331 326 323 325 325 319 313 313 313 313 314 314 316 317 318 318 317 316 315 315
341 340 339 338 338 338 338 338 338 337 338 336 329 320 313 311 312 317 325 331 332 333 332 330 329 326 322 319 318 319 320 320 322 321 317 314 313 313 313 312 311 310 309 308 308 309 310 313 318 321 321 320 323 324 326 327 328 327 326 325 323 320 323 330 333 332 333 328 325 328 321 316 316 314 315 315 316 317 317 318 318 317 316 316 316
340 339 339 338 338 338 338 338 338 338 337 336 332 324 314 311 311 316 325 330 330 330 329 329 328 322 316 315 316 318 321 322 324 325 320 317 316 314 315 315 314 313 311 309 308 309 311 313 317 320 322 323 323 325 326 327 328 327 326 326 324 326 330 332 332 332 334 330 329 330 323 320 319 318 319 318 318 319 319 319 318 318 317 317 316
340 339 338 338 338 338 337 337 337 337 335 334 332 326 321 317 314 318 326 329 329 329 330 331 329 320 314 315 316 318 323 324 322 321 321 322 321 318 319 319 318 318 316 313 310 309 310 313 317 320 322 322 324 328 329 327 327 327 326 325 325 330 332 330 331 332 333 332 332 330 325 325 324 323 323 321 321 320 320 320 318 319 318 317 316
339 339 337 336 337 336 336 336 335 334 333 333 331 329 330 328 323 323 326 327 328 331 331 329 325 320 319 322 323 325 329 329 324 321 321 322 321 319 319 320 321 321 320 319 316 313 311 311 315 319 321 322 326 331 332 330 328 327 326 326 328 331 329 326 328 332 332 331 331 328 326 326 326 327 326 325 323 322 321 320 319 319 318 317 315
339 338 337 335 335 335 334 333 331 330 331 332 332 329 330 331 328 326 329 329 328 329 328 325 323 322 325 328 330 331 332 332 329 328 329 328 326 324 323 322 322 322 321 322 322 320 317 314 312 314 319 325 330 331 332 332 331 330 330 330 332 331 328 328 330 332 333 331 329 326 325 326 327 328 328 327 326 324 322 321 320 318 317 316 315
337 336 335 334 334 333 332 331 329 329 331 332 331 330 330 331 330 330 332 331 328 325 321 321 322 325 329 330 331 332 332 333 333 333 334 333 333 332 331 329 327 325 322 323 326 325 326 326 322 319 321 325 329 332 332 332 332 332 332 332 332 331 330 331 332 332 332 332 327 323 324 326 326 327 328 328 328 327 324 322 320 318 317 315 313
334 334 333 333 333 332 331 329 329 330 331 330 328 330 331 333 332 330 329 327 326 323 320 323 327 329 332 333 333 334 333 333 333 334 334 334 334 334 334 333 332 331 328 328 328 325 328 332 331 330 329 326 325 325 327 329 331 333 333 332 332 331 332 333 333 331 330 329 323 319 322 324 325 326 327 327 328 328 327 325 321 319 318 315 313
333 333 333 332 332 332 330 328 329 332 332 328 326 329 332 332 330 330 330 329 326 324 325 328 329 331 332 333 334 335 335 334 334 334 334 334 335 334 334 334 334 334 333 333 332 329 328 330 330 331 331 331 328 324 322 325 328 330 332 333 332 333 332 332 333 332 330 329 324 319 322 326 327 327 327 327 328 328 328 327 324 321 319 316 313
332 332 332 332 332 332 331 329 329 331 333 331 329 332 333 332 330 331 331 330 328 326 327 328 328 331 332 334 334 335 335 335 335 335 335 335 335 334 333 334 334 334 333 333 336 335 332 330 327 328 330 332 332 330 328 327 325 326 330 331 331 332 330 327 329 329 329 329 328 324 324 328 329 329 328 328 328 329 328 328 326 324 321 318 315
332 332 332 333 332 330 330 331 331 331 333 333 333 334 333 333 333 333 332 331 330 329 330 332 333 334 334 334 335 334 334 333 334 334 334 334 334 333 333 333 333 333 333 333 334 334 335 334 331 330 331 331 331 332 331 330 329 327 329 330 329 329 329 327 326 326 325 325 326 328 326 328 329 330 329 329 329 329 329 329 328 327 323 320 317
332 333 333 333 332 330 330 331 332 332 332 334 335 334 334 333 334 335 335 335 335 333 334 335 335 335 335 335 335 334 334 333 333 333 332 332 332 331 332 333 332 332 332 332 332 331 332 334 335 334 334 333 332 332 331 331 332 331 331 332 330 329 330 329 328 328 327 325 325 327 328 329 330 330 330 330 330 329 330 330 329 329 326 322 318
333 334 334 333 332 329 329 329 329 329 330 332 334 334 335 335 336 337 337 337 335 335 335 336 336 335 335 335 335 334 334 334 333 332 330 330 331 331 332 331 331 330 330 330 330 329 330 330 332 334 334 334 333 332 331 331 332 332 332 332 332 332 332 331 331 330 330 330 329 330 331 332 332 332 332 331 331 330 330 330 330 329 328 325 321
333 334 334 333 333 332 332 332 332 332 332 333 335 336 336 336 336 337 337 337 335 336 335 335 336 334 332 332 333 333 333 332 331 331 330 330 331 330 331 330 329 328 329 330 329 329 329 328 329 330 331 331 332 332 332 332 332 332 332 333 333 333 333 332 333 332 331 332 332 332 332 332 331 331 331 331 331 331 331 330 330 330 329 327 324
334 334 334 333 335 335 336 336 335 336 336 336 337 337 337 337 336 336 337 337 335 335 335 335 333 332 331 332 333 332 331 331 331 331 331 331 331 331 331 331 331 330 331 331 331 332 330 328 327 328 328 328 330 332 333 334 334 334 334 334 334 334 334 334 334 334 333 333 333 333 332 332 331 329 329 329 330 331 331 331 330 330 329 328 326
334 335 335 335 337 337 337 337 337 337 337 337 337 336 337 336 336 336 336 336 335 335 334 334 333 333 333 332 333 332 331 331 332 332 332 332 332 332 331 332 331 330 331 331 331 332 331 331 330 329 328 326 328 331 332 334 335 335 335 335 335 334 334 333 334 334 334 334 334 333 332 332 332 331 330 329 329 330 331 331 330 330 330 329 327
334 336 337 337 338 338 338 338 337 338 337 337 336 336 336 336 336 336 336 335 335 334 334 334 334 333 333 333 332 331 330 330 330 332 332 332 333 333 332 332 331 330 330 331 331 331 332 333 332 332 330 329 329 329 330 331 332 332 333 334 333 333 332 332 333 333 334 334 334 333 332 331 331 331 331 331 331 330 330 331 331 330 330 330 328
336 337 338 338 339 338 338 338 338 337 337 337 337 336 336 336 336 336 336 335 335 334 334 334 334 333 333 333 332 329 329 328 328 330 331 332 333 332 332 332 331 332 332 332 332 333 333 333 333 332 331 331 330 330 329 330 331 331 331 332 331 331 331 331 331 331 332 333 333 332 331 330 329 328 328 331 332 332 331 330 331 330 330 330 329
338 338 339 339 339 339 339 338 338 337 336 336 337 337 337 336 335 335 335 335 335 335 334 334 333 333 334 333 332 330 329 329 329 329 330 332 332 332 332 332 332 332 332 332 333 333 333 332 332 332 332 332 331 330 330 331 332 331 331 332 331 331 331 331 331 330 331 331 331 332 332 331 330 328 327 328 330 333 332 330 331 331 330 330 329
339 338 338 338 339 339 338 337 337 336 335 336 336 336 336 336 334 334 334 335 335 335 334 334 333 334 334 333 332 332 331 331 331 331 332 332 333 332 332 332 332 332 331 332 332 333 333 332 333 333 333 333 332 332 330 331 331 331 331 331 330 330 330 331 331 330 330 329 330 332 332 332 331 330 330 329 330 332 333 332 331 331 331 330 330
339 338 338 338 338 338 337 337 336 336 335 335 336 335 335 335 335 334 335 335 335 334 334 334 334 333 333 333 333 332 332 332 331 331 332 332 333 333 332 332 332 332 331 331 332 332 332 333 333 333 333 333 333 333 332 331 331 331 331 331 330 329 329 329 329 330 330 330 329 329 329 330 329 328 329 330 332 332 333 333 332 331 331 331 330
338 338 338 338 337 336 336 336 336 336 336 336 336 336 336 336 336 336 335 335 334 334 334 333 334 333 333 333 333 332 332 332 332 331 331 332 332 333 333 332 332 332 332 332 332 331 331 332 332 332 333 333 333 334 334 333 332 332 332 332 332 331 330 329 328 329 330 330 330 329 329 328 329 329 328 329 330 331 333 333 333 332 331 331 330
338 337 337 337 337 336 336 336 336 335 336 336 336 337 336 336 336 336 335 334 333 333 332 331 332 332 332 331 331 331 331 332 332 332 332 332 333 333 333 332 332 332 332 332 332 331 331 331 331 332 332 333 333 334 334 332 331 332 333 333 333 332 332 330 329 329 329 329 329 328 328 326 326 328 329 328 328 329 331 333 333 332 331 331 331
337 336 336 337 337 337 337 337 337 336 337 337 336 336 336 336 336 334 332 332 332 332 332 331 331 331 331 331 330 330 331 331 332 332 332 332 332 333 332 332 333 333 332 332 332 332 331 331 332 332 332 332 332 332 332 331 332 333 332 332 332 332 332 330 330 329 329 329 328 328 328 326 323 324 326 328 330 330 330 332 332 332 331 330 330
336 335 335 336 335 335 336 336 336 336 336 336 335 335 334 334 334 332 332 332 332 332 331 331 332 332 332 332 331 331 330 330 331 330 329 329 329 330 331 332 333 333 332 332 332 332 331 331 332 332 331 331 332 332 331 330 331 332 331 331 331 330 330 331 331 330 330 330 329 330 329 326 324 325 327 328 330 331 330 330 331 331 330 330 330
336 335 334 334 334 334 334 334 334 334 334 333 333 333 333 332 331 331 332 333 332 332 332 332 332 333 332 331 331 330 329 329 329 328 328 327 327 327 328 329 330 330 330 330 331 331 330 330 330 331 331 331 331 331 330 330 330 330 330 331 330 330 329 329 330 330 330 331 330 330 328 325 325 326 328 329 329 330 330 330 330 331 331 331 331
335 335 334 334 334 334 333 333 333 333 332 332 333 333 332 331 331 331 332 332 332 332 332 332 332 331 330 330 329 329 328 328 328 327 327 327 327 326 326 326 327 328 328 329 331 330 330 330 329 329 330 330 331 330 329 328 328 329 330 330 329 329 329 329 329 330 330 330 330 329 328 327 326 326 327 329 329 329 330 330 330 330 331 331 331
335 335 334 334 334 333 333 332 333 332 331 331 332 332 332 331 331 332 332 331 331 331 331 331 330 330 329 329 329 329 328 328 328 327 327 327 326 326 325 325 326 326 327 328 329 329 329 329 328 327 327 328 329 329 329 328 328 328 329 329 329 329 329 328 328 329 329 328 329 329 329 328 327 326 327 328 329 330 330 330 330 330 330 330 330
334 334 334 333 333 332 331 331 331 330 329 329 330 330 330 330 330 330 330 330 330 329 329 329 329 329 329 328 328 328 328 327 327 327 326 325 325 324 324 324 323 323 323 324 325 325 325 326 326 325 325 325 326 326 327 327 327 327 328 329 329 329 328 328 328 328 328 328 328 329 329 328 327 326 327 328 329 330 330 330 329 328 328 328 329
334 334 333 332 332 331 330 329 328 327 327 327 327 327 328 328 328 327 327 328 328 328 328 328 329 329 328 328 327 326 326 326 325 324 323 323 322 322 322 321 321 320 320 320 319 319 319 319 320 321 321 322 323 324 325 325 326 327 327 327 327 327 326 326 327 327 327 328 328 327 327 327 328 327 327 327 328 330 330 330 328 328 328 328 328
332 332 332 331 330 329 328 327 326 326 326 325 324 324 325 325 325 325 325 325 325 326 326 327 328 327 327 326 325 324 324 323 322 321 320 320 319 319 319 318 318 317 316 315 314 313 312 313 315 318 319 320 321 322 324 325 325 325 325 326 326 326 326 326 327 326 326 327 327 327 327 327 327 328 328 327 328 328 329 330 330 329 329 328 327
330 330 330 329 327 326 325 324 325 325 324 323 323 323 322 322 323 323 323 323 323 324 325 325 326 325 324 323 323 322 321 319 319 317 317 317 317 315 314 314 313 312 312 311 311 311 311 311 313 315 317 318 319 320 321 322 323 323 323 324 325 326 326 326 326 326 326 326 326 327 327 327 327 327 327 327 328 328 327 328 329 330 329 328 328
329 329 328 326 325 324 323 323 323 323 322 321 321 321 321 321 321 321 321 321 321 322 322 323 323 322 321 320 320 319 317 316 315 315 315 314 313 311 311 311 311 311 311 311 311 311 311 311 312 312 314 315 316 317 318 318 319 319 320 322 323 324 325 325 325 325 326 326 326 327 327 327 326 326 327 327 328 328 328 328 328 330 330 328 329
Wind_Speed
16 16 17 16 13 13 11 8 5 5 6 8 8 9 11 13 15 15 16 15 15 15 14 14 14 14 15 15 17 18 16 15 14 13 12 12 11 11 11 11 11 10 10 11 12 12 11 11 11 10 9 8 8 7 7 6 6 5 3 3 4 5 8 10 12 12 13 15 15 15 16 17 17 17 17 17 16 14 12 11 10 9 10 12 12
19 17 18 17 14 13 11 8 6 6 7 9 10 10 12 13 15 15 16 15 15 16 16 16 16 16 16 16 17 17 15 14 14 13 12 12 11 11 11 11 10 10 10 11 11 10 10 10 9 8 8 8 8 8 7 7 6 5 4 4 4 7 8 10 12 14 16 18 18 17 17 18 18 19 18 17 16 14 12 12 12 10 10 11 10
20 19 19 17 14 13 11 8 6 6 8 10 11 12 13 14 15 15 16 15 15 16 17 17 17 17 16 16 16 15 14 14 13 13 12 12 11 11 11 10 10 10 10 10 10 10 10 9 8 8 8 8 8 8 7 7 7 7 6 6 7 9 10 11 13 14 18 20 20 19 18 18 18 18 17 16 15 13 11 12 14 12 11 11 10
20 20 20 18 15 13 11 8 5 6 8 11 12 13 14 14 15 15 15 15 15 16 17 17 17 16 15 15 14 14 13 13 13 13 12 11 11 11 10 9 9 9 9 9 9 10 9 9 8 8 9 9 9 8 7 6 8 9 8 9 10 11 12 13 14 17 21 21 20 17 14 16 17 17 16 15 14 13 12 13 14 13 13 12 12
20 20 20 18 16 14 11 8 5 5 8 11 12 13 14 14 14 15 15 15 15 15 15 15 15 14 14 14 14 14 13 13 12 12 12 11 10 10 10 9 9 9 9 8 9 9 9 8 8 8 8 8 9 9 8 8 10 12 11 10 12 13 15 14 15 19 21 21 20 13 11 13 15 16 14 15 14 14 15 14 14 13 13 13 12
18 20 19 17 17 14 12 9 6 5 7 11 12 12 13 14 14 14 14 14 14 14 15 14 14 14 14 14 14 13 13 12 11 11 11 11 10 10 10 9 9 8 8 8 9 8 8 7 7 7 7 8 9 10 9 10 12 13 13 12 12 15 16 15 16 18 20 19 16 11 10 11 12 15 14 15 15 15 15 14 13 12 12 13 12
18 19 17 16 17 15 13 9 6 5 7 10 12 12 12 13 14 14 13 14 14 14 14 14 13 13 13 13 13 12 12 11 11 10 10 10 10 10 10 9 9 8 7 8 8 7 7 6 6 6 6 6 7 8 7 9 11 12 14 14 14 14 14 13 13 16 19 15 10 9 10 9 11 14 14 15 14 14 13 13 12 11 11 11 11
17 18 16 15 18 16 13 10 7 6 6 8 10 11 11 11 12 13 13 14 14 14 14 13 13 13 13 12 12 12 11 11 10 10 10 9 9 9 9 9 8 7 6 6 6 5 4 4 4 4 4 5 5 6 6 8 10 12 14 15 15 14 13 12 11 15 17 12 9 9 10 10 10 13 13 13 13 12 12 12 11 10 10 9 10
17 17 14 15 18 16 14 11 8 6 6 7 9 10 10 10 12 13 13 14 14 14 13 13 13 12 12 12 11 11 10 10 10 9 8 8 7 6 5 5 4 3 2 2 2 2 2 2 2 3 4 6 6 5 5 8 10 12 14 15 15 14 14 13 14 16 14 11 10 10 10 9 8 11 12 12 12 11 11 11 11 10 10 9 9
17 16 13 14 18 17 14 12 9 7 6 7 8 10 10 10 12 13 13 14 14 14 13 12 12 11 11 11 11 10 9 9 8 7 6 6 5 3 2 1 0 1 1 2 2 2 2 1 2 3 6 8 8 7 7 9 10 12 13 15 14 14 14 13 16 15 10 9 10 10 10 9 7 10 11 11 12 11 12 11 10 10 9 9 8
17 15 13 15 18 17 15 12 10 8 7 7 8 10 10 11 11 12 14 14 14 13 13 12 12 10 10 10 10 9 8 8 7 6 5 4 2 1 1 1 1 0 0 1 2 2 2 2 3 5 8 10 10 9 9 10 11 11 12 14 14 13 12 13 14 11 9 8 8 9 10 9 8 10 11 11 11 11 11 10 9 9 9 9 9
16 15 13 16 19 17 15 12 10 9 7 7 8 9 10 11 12 12 13 14 13 13 12 11 11 10 9 9 8 7 7 6 5 4 3 2 2 1 1 1 1 1 2 2 3 3 3 3 4 6 9 11 10 10 10 10 10 11 11 12 13 13 11 14 13 7 8 7 8 11 9 7 7 9 10 10 10 10 10 9 9 8 9 9 9
16 15 12 16 20 16 15 12 11 9 8 7 8 9 10 12 13 13 13 13 13 12 12 10 10 9 8 7 7 6 5 4 4 3 2 2 2 2 1 1 2 2 4 4 4 5 5 5 6 8 10 11 11 10 10 9 10 10 11 11 12 13 12 14 12 6 7 7 8 10 7 6 7 9 9 9 9 9 9 8 8 7 8 7 6
17 15 11 16 19 16 15 12 11 10 8 8 8 8 9 11 13 14 14 13 13 12 11 10 8 7 7 6 6 5 4 3 3 2 2 2 2 3 3 2 2 3 4 5 5 5 5 7 7 9 10 11 11 10 10 9 10 10 10 10 11 11 12 14 11 7 8 8 9 8 7 8 8 8 8 9 9 9 9 8 7 7 6 6 5
15 14 10 15 18 15 15 13 12 10 9 8 7 8 9 10 12 14 14 13 12 12 10 9 7 6 5 5 4 4 4 3 3 3 2 2 3 4 4 4 3 3 4 5 5 5 5 7 9 10 11 11 11 10 9 9 9 10 10 10 10 10 11 12 8 7 9 9 9 7 6 7 6 7 8 8 8 8 8 7 7 7 6 6 5
13 13 11 14 16 14 14 13 12 10 9 8 7 8 9 10 12 14 15 14 12 11 10 8 7 6 5 4 3 3 2 3 3 3 3 3 3 4 4 5 5 4 5 4 4 4 5 6 9 10 11 11 11 10 8 8 8 9 9 9 10 9 10 10 6 7 8 7 8 7 4 6 6 6 7 7 7 8 8 7 7 7 7 6 6
13 13 12 13 13 12 12 11 12 10 9 8 8 8 9 11 12 14 16 14 12 10 9 8 7 6 5 4 2 2 2 3 4 4 4 4 4 5 5 5 5 5 5 4 3 3 5 6 7 9 10 10 10 9 8 7 7 7 8 8 8 8 9 9 7 6 6 5 7 7 3 6 6 5 6 7 7 7 7 7 7 8 7 6 6
13 13 13 13 12 12 10 10 10 9 8 8 8 8 8 10 11 14 17 15 12 11 9 8 8 6 5 3 2 3 3 4 5 5 5 4 4 5 5 5 5 6 5 4 3 3 4 5 5 6 8 8 9 8 7 6 6 6 6 6 6 6 6 8 7 4 5 6 6 5 3 5 5 5 6 6 6 7 7 8 8 8 7 6 7
13 13 13 13 13 12 11 9 8 7 7 6 8 9 9 10 12 14 17 16 13 11 10 9 8 7 5 3 4 5 6 6 7 6 6 5 5 5 5 5 5 6 5 4 3 2 3 4 4 4 5 6 6 5 5 4 4 4 4 4 4 4 5 7 4 2 5 6 4 4 4 5 4 5 6 6 6 7 7 8 8 7 7 7 8
13 13 13 12 12 12 11 11 10 9 8 7 7 9 9 11 12 14 17 15 13 11 11 9 7 6 5 6 6 6 7 7 7 7 6 5 5 5 4 5 5 5 5 4 3 2 2 3 3 3 3 3 3 2 2 2 2 2 3 3 3 3 3 4 2 2 3 4 4 3 6 6 5 5 5 5 6 6 7 7 8 7 6 7 7
14 13 12 12 12 12 12 12 12 11 10 8 7 9 10 12 13 14 16 14 12 10 8 6 4 5 7 8 8 8 7 6 6 6 7 6 4 4 4 4 5 5 4 4 3 2 2 3 3 3 2 2 1 1 1 2 1 1 0 1 1 1 0 1 0 2 1 3 4 3 6 6 6 6 6 6 6 7 7 7 7 6 6 6 7
13 12 12 12 11 11 11 10 11 10 10 8 7 8 9 11 12 13 13 12 10 8 6 5 4 5 8 10 10 10 8 6 5 5 6 6 4 3 4 4 4 4 4 4 3 2 1 3 4 4 4 4 3 2 2 3 3 3 2 2 1 0 3 2 0 1 1 3 2 3 6 6 6 7 6 7 7 7 7 7 7 6 6 6 7
11 12 12 12 10 9 9 9 9 9 9 8 7 8 9 9 9 10 10 9 9 7 5 5 5 7 9 9 9 8 6 4 5 6 6 5 4 3 3 3 3 3 3 2 2 2 1 2 5 6 6 6 5 2 1 3 4 4 4 3 1 2 4 4 2 1 2 3 3 4 6 5 6 6 6 7 7 7 7 7 7 7 7 7 7
11 10 11 11 9 9 9 9 10 10 9 8 8 8 9 9 8 9 9 6 7 8 7 7 7 9 9 7 6 5 4 3 3 5 4 3 2 2 2 2 1 1 1 1 2 2 2 1 3 5 7 6 5 4 2 2 3 4 4 3 3 4 5 5 4 2 3 5 5 6 6 6 5 6 6 6 7 7 7 8 7 7 7 7 8
11 10 10 10 9 9 9 9 9 9 9 8 8 9 9 10 8 8 8 5 5 7 9 10 10 9 7 5 5 4 3 2 1 2 1 1 0 1 1 1 1 1 1 1 2 2 1 2 3 3 5 6 7 7 6 5 4 4 5 5 5 6 6 5 6 5 5 6 8 9 8 7 6 6 6 6 7 8 8 8 8 8 7 7 8
11 11 10 10 10 9 9 10 9 9 9 9 9 9 10 10 9 8 8 6 7 9 10 10 9 7 6 5 4 3 2 1 1 1 1 1 1 1 1 2 2 2 2 1 3 3 1 1 2 1 3 5 8 10 10 9 7 6 7 7 7 7 7 5 7 8 8 9 12 12 10 10 8 7 7 7 7 7 8 8 8 8 8 7 9
12 12 11 10 10 10 10 10 10 9 9 10 10 10 9 10 10 10 9 7 8 9 10 9 8 8 7 5 5 3 2 1 1 1 0 0 1 1 2 3 3 3 3 3 3 3 3 3 3 3 3 3 6 9 11 12 11 10 9 8 8 8 8 7 7 9 9 11 13 14 12 11 9 9 8 8 8 8 8 8 8 8 8 8 9
13 13 11 10 10 10 11 11 11 11 10 10 11 9 9 10 10 9 9 8 7 7 7 7 6 6 4 4 3 3 2 2 2 2 1 2 2 3 3 3 3 4 4 3 3 3 4 4 5 4 4 4 5 7 8 11 12 13 12 12 11 11 13 13 12 12 11 11 13 15 13 12 11 11 10 10 10 10 10 9 8 8 9 8 8
14 13 12 11 11 11 12 11 11 11 10 10 9 9 10 10 9 8 7 7 7 6 5 4 3 2 1 1 2 2 1 1 2 2 1 2 3 3 4 4 4 3 4 4 4 4 4 5 5 4 5 5 6 7 8 9 11 13 13 14 15 16 16 17 16 16 15 13 13 15 15 14 13 13 12 13 12 12 11 11 10 9 9 9 8
14 12 12 11 12 12 12 12 11 11 10 9 8 9 10 9 8 8 7 6 6 5 4 3 1 1 1 1 1 1 1 2 2 2 2 2 3 3 3 4 4 3 3 4 5 5 5 5 5 4 5 6 6 8 9 9 10 11 11 12 14 15 15 16 16 16 16 15 15 16 17 15 15 15 15 15 14 14 13 12 11 10 10 10 9
14 12 12 12 12 12 12 11 11 11 11 10 9 9 9 8 7 7 7 6 5 5 4 3 1 1 2 1 1 1 2 2 2 3 2 2 2 2 2 3 3 4 4 4 4 5 5 5 6 6 6 7 8 9 10 10 10 10 11 12 12 13 14 15 14 15 16 15 16 18 19 19 18 17 17 17 17 16 15 14 13 12 11 11 10
14 13 12 13 13 12 12 12 11 11 10 10 9 8 8 7 7 7 6 5 4 4 3 2 2 2 1 1 1 1 1 2 2 2 2 2 2 2 3 4 4 4 4 5 5 5 5 5 6 7 8 8 9 10 10 10 11 11 12 12 13 14 14 14 14 15 16 15 16 18 21 22 22 21 19 19 19 18 17 15 14 13 12 12 12
14 13 13 14 14 14 14 13 11 11 10 10 9 8 8 7 6 5 4 4 3 2 2 1 1 0 1 1 1 1 1 1 1 2 2 2 3 4 4 4 5 5 5 6 6 6 6 6 7 8 8 8 9 9 10 11 11 11 12 13 13 14 14 14 14 14 15 15 16 17 19 20 22 23 23 21 20 19 18 17 16 15 14 13 13
16 14 15 15 15 14 13 12 11 10 10 9 9 8 7 6 5 5 4 3 3 2 1 1 1 1 2 2 2 2 1 1 1 2 2 3 3 5 5 5 6 6 6 6 5 6 7 7 8 8 9 9 9 9 11 11 11 11 12 13 14 14 15 15 15 15 15 15 16 17 19 18 19 21 22 22 20 19 19 19 18 17 16 15 14
16 16 15 15 14 13 12 11 11 10 9 9 9 8 7 6 5 5 4 3 3 2 1 1 1 1 2 3 2 2 2 2 2 1 2 3 3 4 5 5 6 6 6 6 6 6 7 7 8 9 10 10 10 11 12 12 13 13 13 14 15 16 17 17 16 16 15 15 15 16 18 18 18 19 19 19 20 20 20 20 20 19 18 17 16
15 16 15 14 13 13 12 11 11 10 10 10 9 8 7 7 6 5 5 4 3 2 2 1 1 2 2 2 3 3 3 3 2 2 2 3 3 4 5 6 6 6 6 7 7 6 7 8 8 10 11 11 11 12 13 13 14 15 15 16 16 17 17 17 17 17 16 16 16 17 18 19 20 20 19 19 18 20 21 21 21 21 20 18 18
16 15 15 14 12 13 12 12 11 10 10 10 9 8 7 6 6 5 4 3 3 2 1 1 1 2 2 2 2 2 2 2 3 3 3 4 5 5 6 6 6 6 7 7 7 7 8 9 8 9 10 10 12 12 12 13 14 15 15 16 17 16 17 17 18 18 18 18 18 18 18 19 20 21 21 21 19 19 22 22 21 22 22 21 20
16 15 15 14 12 12 12 13 11 9 10 10 9 7 6 5 4 4 3 2 2 1 1 1 1 1 2 3 3 2 1 1 2 2 3 4 5 5 6 7 6 6 6 6 7 8 8 9 9 9 9 10 11 12 12 12 14 15 16 17 18 17 17 17 17 18 18 19 18 17 17 17 19 20 19 21 20 18 20 22 21 22 24 23 21
15 14 13 13 13 12 12 12 11 9 9 9 8 6 5 4 4 4 2 2 1 1 1 1 1 1 2 3 3 2 2 1 2 2 2 3 4 5 5 6 6 5 6 7 7 8 8 9 9 9 10 10 11 12 12 13 14 15 16 17 18 17 16 17 17 17 17 17 17 18 18 17 18 19 18 18 19 19 19 20 21 22 23 24 22
15 15 14 13 13 11 11 11 10 10 8 7 7 6 5 5 4 4 3 3 2 2 1 1 1 2 3 3 3 3 3 2 2 2 2 3 3 4 5 5 5 5 7 7 7 9 9 10 10 11 11 11 11 11 12 13 15 16 16 15 15 15 15 14 14 14 15 16 16 16 16 17 17 17 17 17 18 18 19 20 21 22 22 23 23
15 15 15 13 12 11 11 12 11 9 8 7 6 5 5 4 3 3 4 3 1 0 1 2 2 3 3 3 4 3 4 4 3 3 3 4 4 4 6 6 7 7 7 8 8 10 11 11 11 11 11 11 11 10 11 14 15 15 15 15 15 15 15 13 12 13 14 14 14 14 15 16 17 17 17 18 18 18 18 19 21 23 23 24 24
15 14 14 13 12 11 10 10 10 9 8 7 6 5 4 4 3 2 2 1 2 3 4 5 5 4 3 3 4 3 4 4 3 3 4 5 4 5 6 7 6 6 6 7 8 8 9 10 10 10 10 10 11 11 12 13 13 14 14 16 16 13 13 14 15 15 13 12 14 16 14 15 18 18 17 17 17 17 17 18 20 23 25 25 24
14 14 13 11 9 10 10 9 9 9 9 7 6 5 4 3 2 1 4 4 3 4 5 5 3 2 2 3 3 2 4 5 5 5 6 6 6 5 4 4 4 5 6 6 7 7 7 8 8 8 9 10 10 10 12 12 11 13 13 14 15 13 13 12 12 14 15 16 17 15 14 18 21 19 17 16 16 16 17 18 19 21 24 25 25
15 13 11 9 9 11 11 8 7 8 7 6 6 5 4 3 2 3 3 2 3 3 3 2 2 2 1 5 5 4 5 5 6 7 7 8 8 7 6 7 6 7 7 7 7 7 8 9 9 9 9 11 11 10 11 12 12 13 12 13 15 15 14 11 12 16 16 16 16 16 19 22 21 18 17 17 17 17 17 18 19 20 21 22 24
12 11 10 10 11 11 9 6 4 4 5 6 6 4 4 4 5 4 3 2 2 2 1 2 2 2 5 6 6 5 5 5 7 8 8 9 10 9 8 8 7 7 6 6 6 7 8 10 11 12 10 10 11 12 11 11 11 11 12 14 13 13 14 15 18 19 15 15 17 20 22 20 18 18 18 18 18 18 19 18 19 21 20 21 23
9 12 12 10 8 6 5 4 4 4 5 7 6 4 3 4 4 4 3 3 2 1 2 3 4 5 6 6 6 6 5 6 8 9 10 11 11 10 9 9 8 8 7 8 9 10 11 11 12 14 13 11 11 12 12 12 11 11 11 13 13 14 19 21 21 20 18 18 17 19 20 18 18 19 18 19 19 19 19 19 20 22 22 21 23
13 13 11 9 5 3 3 5 5 5 5 5 4 4 3 2 1 0 1 3 4 4 6 7 6 6 5 6 7 8 8 10 11 12 12 12 11 11 10 10 10 11 11 12 13 14 15 15 15 16 16 14 11 12 13 13 13 12 11 13 15 16 19 20 20 21 22 21 19 19 20 19 20 20 19 19 20 19 19 20 21 23 24 24 24
15 11 7 5 4 3 5 5 5 4 3 3 3 3 3 2 1 1 2 4 4 6 8 8 7 7 6 6 7 10 11 12 13 12 12 11 11 10 10 10 10 11 11 11 11 12 12 13 13 13 13 12 10 10 12 13 13 13 13 13 15 16 17 18 18 19 21 23 23 21 19 18 19 21 21 20 19 19 19 22 23 24 25 25 25
14 10 6 4 5 6 6 5 5 3 3 4 5 6 5 4 3 1 1 2 3 6 9 9 8 7 6 6 6 10 12 11 10 9 8 8 8 8 9 9 9 10 11 10 11 12 11 10 9 8 8 8 8 8 10 12 12 13 14 14 14 15 16 16 16 17 19 21 22 22 21 20 20 21 22 22 21 20 20 21 22 22 24 25 25
11 8 7 7 8 8 6 4 4 4 5 6 6 7 7 6 4 2 0 1 2 6 8 8 8 7 6 6 8 11 9 6 5 4 5 5 6 8 9 10 11 12 13 12 12 12 12 12 10 9 8 8 8 7 9 11 12 12 13 13 14 15 16 16 16 17 19 20 22 24 24 23 22 21 21 21 22 23 22 22 22 23 23 25 26
11 9 10 10 9 7 6 5 5 5 6 6 6 6 7 6 6 5 4 3 3 5 6 7 6 5 4 4 6 6 3 4 5 5 6 7 9 11 12 12 13 13 13 13 13 13 14 14 13 12 11 10 10 10 10 9 10 11 11 11 12 13 15 16 17 18 19 21 23 24 25 24 25 24 22 21 22 24 25 24 24 24 23 25 24
Wind_Direction
157 164 170 170 169 165 155 152 149 153 148 132 129 132 132 127 126 125 124 123 122 120 119 118 116 116 113 110 105 101 98 99 101 102 102 100 99 95 95 94 95 94 94 96 95 97 97 96 94 90 83 76 68 56 53 49 49 52 38 34 44 75 81 88 101 104 108 110 109 106 104 106 109 111 114 115 116 116 114 109 97 90 94 91 88
159 163 168 169 167 165 155 152 151 148 143 132 130 132 133 127 125 122 122 121 120 120 118 117 115 114 110 104 100 99 100 101 102 102 100 97 96 94 94 94 95 97 97 95 94 95 94 94 90 80 72 66 58 48 46 45 45 52 60 71 78 92 91 96 104 106 110 109 107 107 108 109 111 114 115 116 117 117 120 114 105 101 98 90 85
158 162 165 167 165 164 155 152 153 147 141 134 130 132 132 127 125 122 120 119 118 118 116 114 113 110 105 99 98 99 102 102 102 100 98 96 94 94 94 94 96 96 95 95 96 95 92 89 82 71 60 53 53 49 46 44 45 57 79 95 103 102 103 108 108 111 110 106 103 101 105 109 110 111 113 114 116 118 118 107 100 99 96 90 85
156 160 164 163 163 163 155 153 156 147 140 135 131 133 134 128 126 122 120 118 116 115 113 113 111 107 102 99 99 101 103 102 102 101 99 99 98 96 94 95 96 94 96 98 98 95 92 83 74 64 54 50 52 50 45 49 51 59 79 101 110 108 113 113 109 115 113 105 97 91 94 103 107 106 107 111 113 114 109 101 97 99 97 91 85
154 161 165 160 162 161 154 155 155 146 139 134 131 135 135 132 129 124 122 119 116 114 113 111 108 105 102 102 102 103 104 103 101 101 101 100 100 100 99 96 95 98 100 100 99 96 90 79 69 58 51 52 53 53 58 65 58 58 73 96 111 115 118 114 109 113 110 99 90 86 89 93 101 104 105 108 107 104 100 98 96 96 94 87 79
149 159 161 158 162 159 155 154 154 147 137 135 133 139 139 136 132 129 126 121 118 114 112 108 106 104 105 104 103 105 105 104 104 104 102 99 99 101 99 97 98 100 100 99 98 94 88 79 69 61 55 58 60 56 54 57 55 58 73 89 107 116 119 116 113 108 100 91 87 89 89 87 98 104 103 100 98 94 91 89 86 83 81 78 73
146 155 153 157 162 159 157 153 151 144 136 138 136 142 143 139 136 131 127 123 119 114 112 109 107 106 106 106 106 108 106 106 106 105 103 100 100 101 98 100 102 102 103 100 95 92 89 78 70 67 60 63 61 46 35 45 53 63 75 88 102 111 116 114 111 106 99 90 89 98 99 101 100 99 99 96 94 91 88 84 79 74 71 71 69
146 150 148 157 163 160 158 154 148 140 134 137 136 140 141 137 132 126 125 121 116 114 113 111 110 110 109 108 109 109 108 108 106 105 102 100 99 99 100 100 100 103 108 102 97 98 90 78 68 58 52 57 53 41 38 51 58 69 79 91 100 105 105 98 92 90 92 93 98 98 95 96 92 91 93 92 93 94 90 84 79 73 68 63 63
144 146 150 156 162 161 158 156 146 140 133 132 135 136 137 135 126 124 125 120 117 117 116 114 113 113 113 112 112 110 109 108 105 104 102 99 97 97 100 99 100 114 131 130 129 121 106 90 68 48 56 66 66 66 67 67 68 76 85 92 98 100 96 89 86 81 79 87 94 93 91 89 89 88 85 82 83 84 81 77 76 68 63 58 59
144 146 154 156 159 161 158 156 146 143 134 130 134 135 140 137 126 127 128 121 119 120 119 118 117 117 117 117 117 115 113 111 108 106 104 99 97 98 90 64 347 247 236 237 231 193 164 139 95 71 76 80 82 87 83 80 79 80 88 94 97 96 94 90 87 84 82 83 85 91 96 93 91 87 78 73 69 66 66 63 63 59 56 52 53
146 147 161 161 157 160 158 155 149 146 137 132 134 137 143 140 131 128 125 120 121 123 123 122 121 122 122 123 123 122 120 118 117 113 109 101 88 66 32 347 349 324 199 202 204 176 159 144 121 92 87 89 91 94 86 82 82 84 90 95 96 94 96 96 87 84 91 83 75 75 77 75 70 74 70 65 62 60 60 57 55 51 46 40 41
146 148 169 165 156 159 158 156 151 147 140 133 135 141 145 142 132 123 121 122 125 127 126 125 125 128 127 128 129 129 127 122 122 120 115 106 73 33 15 19 66 79 90 107 136 141 130 118 122 109 96 95 98 97 89 85 85 87 92 95 97 94 94 95 89 84 92 87 73 70 73 73 54 59 65 63 63 61 59 55 53 49 43 36 34
148 150 170 163 155 159 158 158 154 149 143 137 138 144 147 144 133 124 127 127 127 130 130 130 131 133 132 134 136 135 133 127 126 120 111 99 68 64 54 43 61 78 90 95 105 118 118 106 113 117 106 102 103 99 93 90 90 91 93 95 94 93 93 92 92 92 90 85 75 70 74 72 49 49 59 62 62 60 58 55 53 47 40 35 30
149 152 170 163 156 159 160 160 156 152 148 144 141 143 148 149 141 133 133 132 131 132 134 134 135 138 140 143 147 149 147 137 122 103 95 93 83 93 94 72 65 78 93 97 95 99 110 111 114 118 113 108 106 100 96 93 92 93 91 93 92 93 94 84 81 86 79 72 73 68 54 47 42 44 53 57 57 56 56 54 50 43 35 29 21
146 148 163 162 156 160 163 161 159 156 153 149 140 136 143 149 148 141 134 133 133 133 135 135 137 142 150 160 160 162 157 138 102 85 87 96 98 98 97 86 80 89 99 102 99 94 104 117 117 118 118 113 109 102 95 94 93 92 91 92 90 92 96 83 68 70 67 58 63 69 53 37 38 45 53 56 53 51 50 51 43 33 27 19 13
143 146 152 158 156 159 164 163 160 158 157 148 138 136 140 147 151 145 135 133 136 136 140 139 141 145 155 171 172 163 140 118 91 85 88 91 100 93 84 79 79 90 101 104 99 100 114 123 120 119 121 117 113 106 99 99 96 94 93 91 90 86 91 92 74 60 61 54 54 66 52 27 39 42 51 56 50 48 41 42 34 24 18 11 8
143 146 145 153 154 155 161 165 160 158 159 150 142 143 144 147 150 147 138 135 138 139 145 146 146 151 165 182 175 147 119 111 98 92 91 90 94 84 74 70 74 82 93 101 91 105 125 131 128 121 123 123 117 109 104 103 99 98 95 90 92 86 87 92 81 64 64 62 52 65 52 18 37 39 43 49 42 40 33 30 21 15 14 4 0
144 146 146 150 153 155 159 163 162 159 159 156 150 146 147 147 151 149 141 138 140 143 148 150 149 159 178 186 160 130 121 120 110 100 95 94 92 80 73 67 70 75 80 89 83 106 129 142 143 127 125 125 120 115 110 107 99 97 97 94 89 88 91 82 72 57 45 49 47 54 41 14 30 36 36 38 31 27 22 20 13 8 7 360 353
144 146 149 151 153 156 158 158 158 154 154 164 157 150 150 148 150 148 143 143 144 148 153 155 160 170 175 154 126 111 105 111 113 107 102 99 93 85 78 68 66 70 74 79 78 98 128 154 167 145 134 128 122 117 112 107 98 95 102 103 98 109 98 77 70 44 29 32 52 38 6 4 9 30 36 31 25 18 13 10 7 3 359 353 348
146 149 151 152 156 158 159 160 159 156 158 168 156 153 155 151 152 149 146 145 148 159 163 161 164 167 146 120 117 108 102 106 110 110 109 104 96 92 84 74 67 65 69 73 78 97 135 174 200 185 160 143 126 107 99 87 83 86 103 122 128 131 90 81 93 65 39 8 49 29 354 3 359 20 33 25 20 10 6 2 1 357 351 347 345
149 154 154 154 158 162 163 163 162 158 158 158 144 146 153 151 151 150 148 148 156 161 151 138 138 136 121 115 116 112 105 99 105 116 116 108 95 89 85 77 71 65 64 65 69 94 158 194 221 230 237 235 281 345 333 342 346 353 58 202 147 110 304 199 137 36 17 353 27 359 355 11 7 20 25 21 19 4 1 356 353 348 342 342 340
151 156 157 159 160 163 161 156 156 149 145 144 140 140 140 145 147 149 150 148 147 136 121 127 136 127 117 114 112 109 100 86 97 112 112 110 111 105 93 84 78 69 63 61 58 62 172 213 232 244 256 270 291 314 318 309 287 285 290 293 346 178 260 261 176 342 327 345 337 322 356 10 10 21 20 21 20 7 2 351 343 339 335 335 334
153 155 158 164 161 159 152 144 148 143 138 135 136 136 134 140 141 138 137 139 137 131 144 157 151 131 117 109 103 99 91 88 100 98 92 98 113 117 106 100 92 80 70 60 52 44 35 234 240 247 256 272 283 260 239 288 286 294 294 289 277 234 263 293 311 315 298 292 281 311 342 353 2 12 11 17 17 7 3 352 340 333 330 327 326
150 151 159 166 157 151 145 142 145 140 138 138 136 136 136 133 124 122 126 143 149 148 163 158 139 126 115 109 109 104 94 99 100 88 80 76 82 89 92 99 92 77 74 40 11 356 354 322 266 259 257 259 263 253 225 233 266 289 287 269 252 265 279 290 294 291 281 278 283 305 320 328 343 356 358 6 5 360 1 358 344 331 325 318 319
151 150 157 161 151 146 144 143 142 139 137 137 138 136 132 123 117 129 140 160 151 141 148 136 124 118 114 120 128 127 115 127 111 96 100 107 72 25 29 28 19 311 322 1 309 305 336 334 318 300 266 249 241 241 236 232 246 262 264 260 259 275 284 279 276 274 273 277 287 300 308 312 321 332 338 349 351 351 355 355 345 331 325 317 315
150 148 151 153 148 145 145 142 139 137 135 135 136 132 129 126 132 141 141 143 132 134 136 128 128 133 137 141 138 134 138 162 140 133 152 164 198 278 293 310 329 316 329 317 278 275 263 278 287 291 267 256 251 250 251 250 249 252 260 268 269 275 277 274 279 283 281 281 290 299 301 302 307 312 315 326 331 338 344 342 341 332 329 323 311
146 147 148 148 146 144 142 140 137 132 130 134 133 129 130 132 139 139 133 132 131 141 145 143 150 148 147 152 151 155 177 209 238 237 233 242 243 262 272 284 300 309 315 308 301 294 271 255 254 254 264 268 264 263 263 262 258 253 256 264 267 267 271 273 272 280 285 285 289 293 292 293 299 301 301 306 310 318 323 325 333 328 325 323 308
148 148 147 147 145 143 138 135 134 130 129 129 127 128 129 130 133 129 132 141 138 141 143 140 142 140 145 154 160 171 195 224 246 266 281 282 287 294 296 296 295 304 309 304 298 290 281 272 267 264 266 264 266 270 268 267 269 266 262 262 265 267 276 281 274 274 280 281 285 288 288 288 291 294 295 298 300 304 307 311 319 316 315 314 303
149 148 146 145 142 139 136 135 131 129 130 128 129 131 125 127 129 124 127 133 130 128 126 126 131 142 155 169 188 198 217 264 274 290 292 281 296 303 306 311 309 310 312 305 290 280 282 280 279 275 272 268 268 272 270 270 276 276 272 268 274 278 279 282 282 281 280 277 277 280 283 284 287 290 290 293 295 296 297 301 304 302 304 306 301
148 147 145 143 141 137 134 136 135 134 134 132 130 126 123 127 132 134 134 130 135 138 139 146 161 187 226 231 221 221 236 277 305 310 309 300 306 309 308 314 316 317 314 304 295 288 283 282 285 279 272 272 267 266 269 272 273 274 274 271 278 283 279 280 282 280 279 279 276 276 278 279 281 285 286 287 289 289 288 290 293 294 296 297 295
148 145 145 143 139 134 131 132 133 133 131 127 124 123 126 134 141 142 139 142 148 141 140 147 163 217 241 237 226 233 243 274 297 301 318 336 317 311 313 307 305 309 308 302 301 294 284 283 283 279 274 270 267 267 269 269 267 269 271 270 273 274 274 277 277 273 274 274 274 276 278 279 280 281 282 283 283 281 282 284 287 288 288 290 289
148 147 145 142 141 142 143 140 137 134 132 129 129 134 137 141 149 145 143 149 145 137 146 154 182 238 245 199 199 233 256 279 295 316 335 342 318 311 312 308 311 316 317 315 314 306 296 287 281 281 279 275 275 277 275 271 269 269 268 270 271 270 272 274 273 273 273 270 271 274 278 282 283 281 280 280 279 276 275 276 279 281 279 282 285
148 149 146 146 150 155 154 150 148 146 144 142 141 143 143 144 148 143 138 132 123 138 150 146 169 286 332 6 20 310 305 299 311 333 332 324 318 315 316 317 320 324 324 323 322 318 311 299 286 280 273 270 274 278 280 278 276 275 273 272 272 274 274 272 271 272 272 270 269 271 275 280 281 282 282 279 276 273 271 269 270 275 275 275 280
150 151 154 156 155 155 155 153 153 152 149 147 144 143 142 141 141 135 125 113 111 125 118 81 68 31 348 344 348 324 326 322 321 335 331 337 336 325 328 327 322 324 325 322 318 314 311 307 300 291 281 274 270 273 278 278 278 278 279 278 276 276 275 275 275 273 272 272 269 269 272 273 273 278 281 281 277 270 266 266 265 268 273 273 273
153 156 160 158 154 154 155 152 151 150 146 143 142 140 138 139 136 131 124 119 124 126 120 91 29 12 343 334 327 316 315 319 331 350 346 349 345 331 332 326 318 322 320 313 313 312 308 306 304 300 296 290 282 278 279 280 279 278 279 280 279 278 278 278 277 276 276 273 270 270 272 272 271 272 274 276 278 274 266 262 264 266 269 273 271
156 161 160 155 153 152 152 149 148 146 144 140 137 137 138 142 141 137 139 139 144 158 159 142 349 343 348 329 316 315 311 315 317 326 342 339 328 320 321 318 316 319 317 312 313 308 298 297 299 300 301 301 296 292 290 290 289 286 284 283 282 282 282 281 279 278 277 274 274 274 276 277 277 277 273 269 269 273 271 265 264 264 265 269 268
158 161 154 151 151 148 148 146 145 146 144 139 137 139 140 144 147 146 148 147 153 163 137 44 351 348 355 349 344 338 317 314 314 322 328 315 309 309 309 311 315 319 318 316 312 306 301 301 302 301 303 303 301 301 299 294 293 292 287 284 283 283 283 284 284 284 282 283 283 282 282 281 281 281 278 273 266 263 269 270 266 262 262 266 265
155 155 147 147 151 152 153 147 143 142 140 138 140 145 146 148 149 144 144 142 143 139 114 331 324 348 5 16 21 22 347 323 317 323 320 311 310 307 307 310 316 321 318 315 313 311 310 309 309 305 301 299 298 300 300 294 292 291 289 288 287 286 285 285 286 287 289 291 288 284 282 280 283 284 279 275 270 260 260 267 269 262 259 262 262
148 148 146 150 154 153 148 140 136 133 132 136 142 147 145 134 126 127 125 123 122 134 174 221 263 18 28 25 25 31 24 350 331 331 321 315 310 307 308 308 310 311 310 314 312 309 307 306 306 301 295 293 294 297 299 295 292 292 294 295 294 293 291 288 286 287 290 291 289 287 285 283 284 286 282 274 269 262 256 260 267 264 259 260 259
147 146 149 151 149 143 137 132 131 132 131 135 139 138 135 131 129 133 141 148 155 179 214 212 161 63 48 39 37 39 34 22 355 349 336 330 328 317 310 311 320 319 314 313 307 304 302 299 298 299 300 299 299 300 297 298 298 299 301 300 298 298 297 294 290 288 289 289 288 288 290 291 290 288 288 281 272 264 256 254 259 261 261 262 260
145 147 144 139 135 135 135 132 132 137 137 140 141 137 137 135 138 152 159 170 156 116 336 27 59 50 47 35 34 38 25 15 3 0 351 348 344 324 321 333 341 333 324 319 314 316 314 313 313 315 316 313 312 308 300 305 306 304 307 306 302 301 302 304 301 293 288 285 288 291 291 293 294 291 289 287 280 272 261 253 253 257 260 261 262
135 145 138 131 132 134 133 130 133 138 138 136 137 144 146 133 145 156 120 80 40 39 29 36 38 38 61 29 18 23 354 344 340 342 335 336 335 329 338 345 342 327 316 314 317 322 322 323 324 321 319 317 317 311 305 313 311 307 310 308 307 306 301 305 305 299 293 289 294 296 292 295 299 295 290 286 281 275 268 259 254 256 259 259 260
132 139 135 131 135 135 132 135 140 143 143 135 130 141 151 153 171 66 50 44 43 48 35 34 40 73 98 10 347 301 304 306 299 306 307 309 311 311 314 313 315 309 302 301 305 309 309 312 314 311 313 311 312 309 308 314 309 308 311 306 309 311 301 300 302 303 303 298 294 292 293 303 305 297 291 288 280 274 271 268 262 258 261 263 258
130 130 130 124 125 126 125 129 135 143 148 132 115 120 128 128 103 72 67 46 44 51 34 44 124 131 287 311 304 289 307 310 308 316 319 318 315 309 295 283 283 287 291 292 291 292 290 292 295 297 306 310 307 303 302 306 306 308 311 305 307 305 300 306 309 304 299 292 292 294 298 305 304 297 292 289 283 277 272 271 270 263 260 260 257
130 127 128 121 120 121 120 123 123 132 133 112 102 99 83 69 57 48 42 31 30 26 29 167 180 253 286 295 291 292 308 310 312 317 317 317 317 317 310 299 294 290 289 279 269 276 279 282 286 286 291 299 301 299 298 300 301 300 299 301 303 298 299 309 311 305 296 294 297 298 299 301 300 295 290 286 282 278 273 269 269 267 260 254 251
147 138 136 133 135 142 137 129 112 107 109 103 103 97 65 48 36 20 8 350 317 266 199 198 240 263 274 281 277 284 296 298 302 303 303 305 305 306 303 295 291 285 278 265 260 266 268 271 279 285 284 281 287 294 296 294 293 292 289 290 290 289 295 302 304 303 300 300 297 294 296 299 300 297 290 286 282 278 274 269 267 268 266 260 254
149 143 141 141 152 168 131 111 112 112 110 103 98 97 93 86 67 176 219 244 245 232 227 234 248 249 255 265 267 276 285 291 295 295 296 297 296 296 293 288 284 281 281 276 272 272 272 276 282 287 288 288 289 289 293 295 293 291 286 284 283 283 289 295 298 299 300 300 297 294 296 297 300 298 291 287 283 278 275 272 271 270 269 268 264
155 155 158 142 128 118 98 106 125 128 118 90 65 67 72 70 69 173 197 206 217 230 233 235 235 233 245 261 276 287 287 287 291 291 291 290 289 290 291 291 292 297 301 300 300 301 301 301 298 296 295 296 295 290 294 298 296 295 291 289 289 289 291 293 294 296 298 300 301 301 299 296 296 295 295 293 284 277 275 275 274 272 270 270 267
156 156 160 140 126 125 119 129 136 122 93 56 40 37 31 32 42 50 137 188 217 232 231 231 233 240 256 269 282 288 290 294 294 293 297 298 302 306 311 320 328 338 345 346 347 346 343 339 331 322 317 315 310 297 286 280 282 291 294 294 295 295 297 297 296 296 297 299 301 302 301 299 297 295 296 295 288 282 278 276 273 269 268 268 267
148 145 147 151 149 138 129 130 114 85 66 51 41 33 26 25 33 35 346 237 226 230 233 236 241 251 267 272 268 270 284 313 323 329 341 343 349 355 359 4 7 9 10 11 11 11 9 8 6 358 345 333 328 314 289 275 278 292 296 296 297 299 299 299 299 299 299 298 298 300 301 301 301 299 296 292 289 287 285 282 276 270 268 268 266
152 158 157 157 155 132 111 103 89 73 61 54 49 39 29 22 17 1 326 292 247 235 244 250 252 256 260 260 263 268 306 29 34 27 23 26 26 25 26 24 23 24 24 24 24 21 18 17 16 13 6 356 346 336 324 312 305 307 308 300 296 297 298 298 298 298 301 301 300 301 301 303 303 301 297 294 291 290 289 288 280 271 268 269 265